[[{"header":{"parameterUnit":"m.s-1","parameterCategory":1,"la1":30.2991,"la2":30.254,"lo1":-89.0895,"lo2":-89.0444,"dy":0.0017,"dx":0.0017,"nx":28,"ny":28,"refTime":"2023-11-06T09:00:00:Z","depth":0,"parameterNumber":2,"parameterNumberName":"U-component_of_WINDS"},"data":[0,0,0,0,0,0,0,0,0,0,0,0,0,0,0,0,0,0,0,0,0,0,0,0,0,0,0,0,0,0,0,0,0,0,0,0,0,0,0,0,0,0,0,0,0,0,0,0,0,0,0,0,0,0,0,0,0,0,-0.1697,-0.1697,0,-0.1708,-0.1708,-0.1708,-0.1694,-0.1693,-0.1693,-0.1692,-0.1704,-0.1704,-0.1705,0,0,0,0,0,0,0,0,0,0,0,0,0,-0.1664,-0.1664,-0.1697,-0.1697,-0.1697,-0.1708,-0.1708,-0.1708,-0.1694,-0.1693,-0.1693,-0.1692,-0.1703,-0.1704,-0.1705,0,0,0,0,0,0,0,0,0,0,0,0,0,-0.1677,-0.1664,-0.1697,-0.1691,-0.1691,-0.1708,-0.1708,-0.1708,-0.1694,-0.1693,-0.1692,-0.1692,-0.1703,-0.1704,-0.1705,-0.1728,0,0,-0.1709,-0.1709,0,0,0,0,0,0,0,0,-0.1676,-0.1678,-0.1692,-0.1692,-0.1691,-0.1699,-0.17,-0.1715,-0.1694,-0.1693,-0.1692,-0.1691,-0.1703,-0.1704,-0.1707,-0.1729,-0.1729,-0.1709,-0.171,-0.171,-0.1711,0,0,0,0,0,0,0,-0.1675,-0.1677,-0.1701,-0.1692,-0.1692,-0.1688,-0.1689,-0.1703,-0.1702,-0.1693,-0.1692,-0.1693,-0.1702,-0.1706,-0.1708,-0.1729,-0.1709,-0.171,-0.1711,-0.1711,-0.1768,-0.1769,0,0,0,0,0,0,-0.1675,-0.1677,-0.1701,-0.1701,-0.1681,-0.1689,-0.169,-0.1697,-0.1702,-0.1702,-0.1694,-0.1693,-0.1705,-0.1706,-0.1708,-0.1734,-0.171,-0.1711,-0.1712,-0.1768,-0.1769,-0.1769,0,0,0,0,0,0,-0.1674,-0.1677,-0.17,-0.1689,-0.1691,-0.1691,-0.1698,-0.1698,-0.1702,-0.1703,-0.1702,-0.1698,-0.1704,-0.1706,-0.1723,-0.1734,-0.1712,-0.1713,-0.1767,-0.1768,-0.1769,-0.1787,0,0,0,0,0,0,-0.1673,-0.1677,-0.1686,-0.1689,-0.1692,-0.1715,-0.1699,-0.1698,-0.1704,-0.1702,-0.1707,-0.1707,-0.1704,-0.1721,-0.1724,-0.1736,-0.1714,-0.1766,-0.1767,-0.1769,-0.1786,-0.1789,-0.1792,0,0,0,0,0,-0.1672,-0.1691,-0.1686,-0.1689,-0.1703,-0.1716,-0.1718,-0.1714,-0.1705,-0.1713,-0.1714,-0.1707,-0.1733,-0.1723,-0.1726,-0.1738,-0.1765,-0.1767,-0.1768,-0.1784,-0.1788,-0.1792,0,0,0,0,0,0,-0.1689,-0.1691,-0.1686,-0.1707,-0.1711,-0.1714,-0.1725,-0.1719,-0.1726,-0.1724,-0.1719,-0.172,-0.1738,-0.174,-0.1729,-0.176,-0.1747,-0.175,-0.1758,-0.1762,-0.1765,-0.1764,-0.1715,0,0,0,0,0,-0.1695,-0.1706,-0.1707,-0.1725,-0.1727,-0.1725,-0.1731,-0.1727,-0.1732,-0.1734,-0.1736,-0.1741,-0.175,-0.1756,-0.1764,-0.1786,-0.1786,-0.1795,-0.1798,-0.1801,-0.1803,-0.1814,-0.1818,-0.1775,-0.1775,-0.1775,0,0,-0.1708,-0.1711,-0.1718,-0.1728,-0.1731,-0.1742,-0.1727,-0.1739,-0.1747,-0.1736,-0.1752,-0.1753,-0.1758,-0.1776,-0.1785,-0.1778,-0.1815,-0.1803,-0.1805,-0.1806,-0.1816,-0.182,-0.1823,-0.1777,-0.1776,-0.1776,0,0,-0.1737,-0.174,-0.1755,-0.1758,-0.1763,-0.1761,-0.1765,-0.1768,-0.1768,-0.1784,-0.1775,-0.1784,-0.18,-0.1804,-0.1808,-0.1837,-0.183,-0.1839,-0.1856,-0.1866,-0.1869,-0.1872,-0.1882,-0.1885,-0.1842,-0.1842,-0.1842,0,-0.1753,-0.1768,-0.1763,-0.1776,-0.178,-0.177,-0.1785,-0.1788,-0.1796,-0.1799,-0.1792,-0.1811,-0.1814,-0.1832,-0.1839,-0.1843,-0.1846,-0.1839,-0.1869,-0.1872,-0.1875,-0.1884,-0.1887,-0.1843,-0.1843,-0.1843,-0.1843,0,-0.1787,-0.1798,-0.1809,-0.1816,-0.1822,-0.1835,-0.1832,-0.1838,-0.1834,-0.1833,-0.1848,-0.1851,-0.1859,-0.1864,-0.186,-0.1882,-0.1878,-0.187,-0.1857,-0.188,-0.1888,-0.1892,-0.1844,-0.1844,-0.1844,-0.1843,0,0,-0.1828,-0.1831,-0.1835,-0.1837,-0.1841,-0.1849,-0.1862,-0.187,-0.1875,-0.188,-0.189,-0.1904,-0.1896,-0.19,-0.1897,-0.1906,-0.1927,-0.1897,-0.1897,-0.1902,-0.1951,-0.1956,-0.1961,-0.1923,-0.1924,-0.1924,-0.195,0,-0.1857,-0.1878,-0.1873,-0.1894,-0.1904,-0.1893,-0.1904,-0.1908,-0.1907,-0.1915,-0.1914,-0.1923,-0.1913,-0.1915,-0.1923,-0.1923,-0.1937,-0.1921,-0.1932,-0.1932,-0.1931,-0.1965,-0.1971,-0.1996,-0.1954,-0.1954,-0.1954,0,-0.1893,-0.1898,-0.192,-0.1921,-0.1925,-0.1935,-0.1941,-0.1949,-0.1952,-0.1951,-0.1955,-0.1949,-0.1961,-0.1948,-0.1964,-0.1953,-0.1957,-0.1958,-0.1959,-0.1959,-0.1945,-0.1966,-0.2004,-0.2007,-0.196,-0.1959,-0.1959,0,-0.192,-0.1933,-0.1947,-0.195,-0.1952,-0.1959,-0.196,-0.1962,-0.1967,-0.1972,-0.1975,-0.1982,-0.1985,-0.1991,-0.1987,-0.1978,-0.2003,-0.199,-0.2002,-0.2002,-0.2008,-0.2008,-0.2046,-0.2011,-0.2011,-0.2011,-0.2011,0,-0.1952,-0.1966,-0.1959,-0.1968,-0.1983,-0.1977,-0.1992,-0.1991,-0.1993,-0.2002,-0.1994,-0.2002,-0.1996,-0.2004,-0.2001,-0.2014,-0.2016,-0.2015,-0.2014,-0.2016,-0.2016,-0.2018,-0.2016,-0.2012,-0.2012,-0.2012,-0.2012,0,-0.1985,-0.1981,-0.1996,-0.1996,-0.1996,-0.2007,-0.2007,-0.2015,-0.2013,-0.2024,-0.2026,-0.2023,-0.2032,-0.2028,-0.2037,-0.2035,-0.2052,-0.2049,-0.2051,-0.205,-0.2062,-0.2061,-0.2103,-0.2108,-0.207,-0.2071,-0.2071,0,-0.2006,-0.2016,-0.2016,-0.2021,-0.2023,-0.2031,-0.2035,-0.2029,-0.2034,-0.2038,-0.2045,-0.2052,-0.2058,-0.2072,-0.207,-0.2077,-0.2074,-0.2088,-0.2075,-0.2076,-0.2073,-0.2073,-0.2073,-0.2091,-0.2091,-0.2092,-0.2092,0,-0.2043,-0.204,-0.2046,-0.2052,-0.2057,-0.2061,-0.2065,-0.2069,-0.2063,-0.2069,-0.2077,-0.2081,-0.209,-0.2097,-0.2102,-0.2103,-0.2097,-0.2096,-0.2099,-0.2101,-0.2101,-0.21,-0.2058,-0.2095,-0.2095,-0.2095,-0.2094,-0.2094,-0.207,-0.2078,-0.2079,-0.2086,-0.2088,-0.2091,-0.2098,-0.2097,-0.2103,-0.2109,-0.2105,-0.2114,-0.2116,-0.2123,-0.2125,-0.2132,-0.2126,-0.2131,-0.2132,-0.2133,-0.2134,-0.21,-0.2133,-0.2133,-0.2132,-0.2132,-0.2132,0,-0.2106,-0.2106,-0.2112,-0.2117,-0.2122,-0.2115,-0.2118,-0.2123,-0.2131,-0.2133,-0.2138,-0.2147,-0.2153,-0.2152,-0.2158,-0.2164,-0.2161,-0.2166,-0.2165,-0.2165,-0.2139,-0.2136,-0.2168,-0.2168,-0.2168,-0.2168,-0.2168,-0.2168,-0.2125,-0.2138,-0.2135,-0.2148,-0.2148,-0.2157,-0.2159,-0.2161,-0.2163,-0.2173,-0.2178,-0.2177,-0.2178,-0.2183,-0.2189,-0.2188,-0.2191,-0.2197,-0.2195,-0.2171,-0.2167,-0.2164,-0.216,-0.2197,-0.2197,-0.222,-0.222,-0.222]},{"header":{"parameterUnit":"m.s-1","parameterCategory":1,"la1":30.2991,"la2":30.254,"lo1":-89.0895,"lo2":-89.0444,"dy":0.0017,"dx":0.0017,"nx":28,"ny":28,"refTime":"2023-11-06T09:00:00:Z","depth":0,"parameterNumber":3,"parameterNumberName":"V-component_of_WINDS"},"data":[0,0,0,0,0,0,0,0,0,0,0,0,0,0,0,0,0,0,0,0,0,0,0,0,0,0,0,0,0,0,0,0,0,0,0,0,0,0,0,0,0,0,0,0,0,0,0,0,0,0,0,0,0,0,0,0,0,0,2.0567,2.0567,0,2.057,2.057,2.057,2.0569,2.0568,2.0568,2.0568,2.057,2.057,2.057,0,0,0,0,0,0,0,0,0,0,0,0,0,2.056,2.0561,2.0567,2.0568,2.0568,2.057,2.057,2.057,2.0569,2.0568,2.0568,2.0568,2.057,2.057,2.057,0,0,0,0,0,0,0,0,0,0,0,0,0,2.0563,2.0561,2.0567,2.0567,2.0567,2.057,2.057,2.057,2.0569,2.0568,2.0568,2.0568,2.057,2.057,2.057,2.0573,0,0,2.057,2.057,0,0,0,0,0,0,0,0,2.0563,2.0563,2.0567,2.0567,2.0567,2.0569,2.0568,2.0571,2.0569,2.0568,2.0568,2.0568,2.0569,2.057,2.057,2.0573,2.0573,2.057,2.057,2.0571,2.0571,0,0,0,0,0,0,0,2.0563,2.0563,2.0568,2.0567,2.0567,2.0567,2.0567,2.0569,2.0569,2.0568,2.0568,2.0568,2.0569,2.057,2.057,2.0573,2.057,2.0571,2.0571,2.0571,2.0579,2.0579,0,0,0,0,0,0,2.0563,2.0563,2.0568,2.0569,2.0565,2.0567,2.0567,2.0568,2.0569,2.0569,2.0568,2.0568,2.057,2.057,2.057,2.0574,2.0571,2.0571,2.0571,2.0579,2.0579,2.0579,0,0,0,0,0,0,2.0563,2.0563,2.0568,2.0566,2.0566,2.0567,2.0568,2.0569,2.0569,2.057,2.0569,2.0569,2.057,2.057,2.0573,2.0574,2.0571,2.0571,2.0579,2.0579,2.0579,2.0582,0,0,0,0,0,0,2.0563,2.0563,2.0565,2.0566,2.0567,2.0571,2.0569,2.0569,2.057,2.0569,2.057,2.057,2.057,2.0572,2.0573,2.0574,2.0571,2.0579,2.0579,2.0579,2.0582,2.0582,2.0583,0,0,0,0,0,2.0562,2.0565,2.0565,2.0565,2.0568,2.0571,2.0571,2.0571,2.057,2.0571,2.0571,2.057,2.0574,2.0573,2.0573,2.0575,2.0578,2.0579,2.0579,2.0582,2.0582,2.0583,0,0,0,0,0,0,2.0563,2.0565,2.0565,2.0568,2.0569,2.0571,2.0572,2.0572,2.0573,2.0573,2.0572,2.0572,2.0575,2.0575,2.0573,2.0578,2.0576,2.0576,2.0578,2.0578,2.0579,2.0579,2.0571,0,0,0,0,0,2.0564,2.0566,2.0567,2.057,2.0571,2.0571,2.0572,2.0572,2.0573,2.0574,2.0574,2.0575,2.0577,2.0577,2.0579,2.0582,2.0582,2.0583,2.0584,2.0584,2.0585,2.0587,2.0587,2.058,2.058,2.058,0,0,2.0565,2.0566,2.0568,2.057,2.0571,2.0574,2.0572,2.0574,2.0575,2.0574,2.0577,2.0577,2.0578,2.0581,2.0582,2.0581,2.0587,2.0585,2.0585,2.0585,2.0587,2.0588,2.0588,2.058,2.058,2.058,0,0,2.0568,2.0569,2.0572,2.0573,2.0575,2.0576,2.0576,2.0578,2.0578,2.0581,2.058,2.0582,2.0584,2.0585,2.0586,2.059,2.0589,2.0591,2.0593,2.0595,2.0596,2.0596,2.0598,2.0599,2.0591,2.0591,2.0591,0,2.0569,2.0573,2.0573,2.0576,2.0577,2.0577,2.0579,2.058,2.0582,2.0583,2.0582,2.0586,2.0586,2.059,2.0591,2.0591,2.0592,2.059,2.0596,2.0596,2.0597,2.0599,2.0599,2.0591,2.0591,2.0591,2.0591,0,2.0574,2.0577,2.0579,2.0582,2.0583,2.0586,2.0586,2.0588,2.0588,2.0588,2.0591,2.0592,2.0594,2.0594,2.0594,2.0598,2.0597,2.0596,2.0594,2.0598,2.0599,2.06,2.0591,2.0591,2.0591,2.0591,0,0,2.0578,2.0581,2.0582,2.0584,2.0586,2.0588,2.059,2.0593,2.0594,2.0595,2.0598,2.06,2.0599,2.06,2.06,2.0602,2.0606,2.06,2.06,2.0602,2.061,2.0611,2.0612,2.0605,2.0605,2.0605,2.061,0,2.0581,2.0587,2.0588,2.0592,2.0595,2.0594,2.0597,2.0598,2.0599,2.0601,2.0601,2.0603,2.0602,2.0603,2.0604,2.0605,2.0607,2.0604,2.0607,2.0607,2.0607,2.0613,2.0614,2.0619,2.0611,2.0611,2.0611,0,2.0586,2.0589,2.0594,2.0597,2.0598,2.06,2.0602,2.0604,2.0606,2.0606,2.0608,2.0608,2.061,2.0608,2.0612,2.061,2.0611,2.0611,2.0611,2.0612,2.061,2.0614,2.062,2.0621,2.0612,2.0612,2.0612,0,2.0589,2.0593,2.0597,2.0598,2.0601,2.0603,2.0604,2.0606,2.0608,2.061,2.0611,2.0613,2.0614,2.0616,2.0616,2.0614,2.062,2.0617,2.062,2.062,2.0621,2.0621,2.0628,2.0621,2.0621,2.0621,2.0621,0,2.0593,2.0596,2.0598,2.0601,2.0604,2.0605,2.0609,2.061,2.0611,2.0614,2.0614,2.0616,2.0616,2.0618,2.0618,2.0621,2.0622,2.0622,2.0622,2.0622,2.0622,2.0623,2.0623,2.0622,2.0622,2.0622,2.0622,0,2.0596,2.0598,2.0602,2.0605,2.0606,2.0608,2.0611,2.0613,2.0614,2.0617,2.0618,2.0619,2.0622,2.0622,2.0625,2.0625,2.0629,2.0629,2.0629,2.0629,2.0631,2.0631,2.0639,2.0641,2.0633,2.0633,2.0633,0,2.0599,2.0601,2.0605,2.0607,2.0609,2.0612,2.0613,2.0614,2.0616,2.0619,2.0621,2.0624,2.0626,2.063,2.0631,2.0633,2.0633,2.0636,2.0633,2.0634,2.0634,2.0634,2.0634,2.0636,2.0636,2.0637,2.0637,0,2.0603,2.0604,2.0607,2.0611,2.0614,2.0616,2.0619,2.062,2.0621,2.0624,2.0627,2.0629,2.0632,2.0635,2.0637,2.0638,2.0638,2.0637,2.0638,2.0638,2.0639,2.0639,2.063,2.0637,2.0637,2.0637,2.0637,2.0637,2.0607,2.0609,2.0612,2.0616,2.0618,2.0621,2.0623,2.0625,2.0628,2.0631,2.0631,2.0635,2.0637,2.064,2.0642,2.0644,2.0643,2.0644,2.0644,2.0645,2.0645,2.0638,2.0644,2.0644,2.0644,2.0644,2.0644,0,2.0611,2.0614,2.0617,2.0621,2.0624,2.0624,2.0627,2.0629,2.0633,2.0635,2.0638,2.0641,2.0644,2.0646,2.0648,2.065,2.065,2.0651,2.0651,2.0651,2.0646,2.0645,2.0651,2.0651,2.0651,2.0651,2.0651,2.0651,2.0614,2.0619,2.062,2.0626,2.0628,2.0632,2.0634,2.0636,2.0638,2.0643,2.0646,2.0647,2.0649,2.0652,2.0655,2.0655,2.0656,2.0657,2.0657,2.0652,2.0652,2.0651,2.065,2.0657,2.0657,2.0663,2.0663,2.0663]}]]